[[{"header":{"parameterUnit":"m.s-1","parameterCategory":1,"la1":30.2991,"la2":30.254,"lo1":-89.0895,"lo2":-89.0444,"dy":0.0017,"dx":0.0017,"nx":28,"ny":28,"refTime":"2024-06-22T09:00:00:Z","depth":0,"parameterNumber":2,"parameterNumberName":"U-component_of_WINDS"},"data":[0,0,0,0,0,0,0,0,0,0,0,0,0,0,0,0,0,0,0,0,0,0,0,0,0,0,0,0,0,0,0,0,0,0,0,0,0,0,0,0,0,0,0,0,0,0,0,0,0,0,0,0,0,0,0,0,0,0,-0.1304,-0.1303,0,-0.1188,-0.1187,-0.1185,-0.1146,-0.1147,-0.1147,-0.1148,-0.1024,-0.102,-0.1017,0,0,0,0,0,0,0,0,0,0,0,0,0,-0.1489,-0.1486,-0.1304,-0.1303,-0.1301,-0.1188,-0.1187,-0.1185,-0.1146,-0.1147,-0.1147,-0.1148,-0.1025,-0.1021,-0.1016,0,0,0,0,0,0,0,0,0,0,0,0,0,-0.1394,-0.1485,-0.1304,-0.1268,-0.1264,-0.1189,-0.1187,-0.1185,-0.1146,-0.1147,-0.1147,-0.1148,-0.1027,-0.1021,-0.1016,-0.0966,0,0,-0.0998,-0.0996,0,0,0,0,0,0,0,0,-0.14,-0.1387,-0.1275,-0.1271,-0.1266,-0.1182,-0.1206,-0.1111,-0.1146,-0.1191,-0.1148,-0.1148,-0.1076,-0.1066,-0.1043,-0.096,-0.0955,-0.0998,-0.0995,-0.0992,-0.0991,0,0,0,0,0,0,0,-0.1406,-0.1392,-0.1258,-0.1274,-0.1268,-0.1257,-0.1244,-0.1188,-0.113,-0.1187,-0.1184,-0.1171,-0.1073,-0.1048,-0.1039,-0.0953,-0.0998,-0.0993,-0.099,-0.0987,-0.0825,-0.0824,0,0,0,0,0,0,-0.1419,-0.1398,-0.1262,-0.1255,-0.1336,-0.1253,-0.1239,-0.1208,-0.1131,-0.112,-0.117,-0.1169,-0.1057,-0.1046,-0.1035,-0.0972,-0.0992,-0.0987,-0.0984,-0.0826,-0.0825,-0.0824,0,0,0,0,0,0,-0.1423,-0.1408,-0.1266,-0.1325,-0.1307,-0.1249,-0.1215,-0.1206,-0.118,-0.1118,-0.1108,-0.1155,-0.1058,-0.1043,-0.0984,-0.0967,-0.0984,-0.0979,-0.0827,-0.0826,-0.0824,-0.0846,0,0,0,0,0,0,-0.1429,-0.1409,-0.1391,-0.1325,-0.1304,-0.1219,-0.1214,-0.1203,-0.1171,-0.1169,-0.1102,-0.1091,-0.1057,-0.0993,-0.0978,-0.096,-0.0975,-0.0828,-0.0827,-0.0825,-0.0847,-0.0846,-0.0845,0,0,0,0,0,-0.1436,-0.14,-0.139,-0.1374,-0.1279,-0.1218,-0.1205,-0.1168,-0.117,-0.1151,-0.1111,-0.1093,-0.0972,-0.0987,-0.0971,-0.095,-0.0829,-0.0827,-0.0825,-0.0847,-0.0846,-0.0845,0,0,0,0,0,0,-0.1463,-0.1391,-0.1379,-0.1322,-0.1276,-0.1211,-0.1185,-0.1168,-0.112,-0.112,-0.1074,-0.1059,-0.1004,-0.0971,-0.0989,-0.0898,-0.0899,-0.0894,-0.0922,-0.092,-0.092,-0.0928,-0.097,0,0,0,0,0,-0.1463,-0.1421,-0.1359,-0.1315,-0.1293,-0.1243,-0.1215,-0.1191,-0.1141,-0.1121,-0.1077,-0.1029,-0.098,-0.0948,-0.09,-0.0842,-0.0827,-0.082,-0.0819,-0.0819,-0.0814,-0.0782,-0.0778,-0.0817,-0.0817,-0.0817,0,0,-0.1462,-0.1417,-0.1392,-0.1319,-0.1281,-0.1237,-0.1227,-0.1181,-0.1147,-0.1114,-0.1056,-0.1022,-0.0965,-0.0907,-0.0879,-0.0878,-0.08,-0.0816,-0.0816,-0.0812,-0.0779,-0.0776,-0.0772,-0.0816,-0.0816,-0.0816,0,0,-0.1436,-0.1399,-0.1357,-0.132,-0.1264,-0.1231,-0.1222,-0.1159,-0.1136,-0.1078,-0.1052,-0.1011,-0.0927,-0.0888,-0.0857,-0.0819,-0.08,-0.0804,-0.0799,-0.0768,-0.0765,-0.0762,-0.0748,-0.0744,-0.08,-0.08,-0.08,0,-0.1441,-0.1375,-0.1338,-0.1293,-0.1262,-0.1232,-0.1189,-0.1154,-0.1084,-0.1063,-0.1063,-0.0958,-0.0917,-0.085,-0.0841,-0.0817,-0.0804,-0.0811,-0.0769,-0.0765,-0.0762,-0.0748,-0.0743,-0.0801,-0.0801,-0.0801,-0.0801,0,-0.1383,-0.1338,-0.1311,-0.1247,-0.1212,-0.1168,-0.1124,-0.1093,-0.1072,-0.104,-0.0981,-0.0931,-0.0873,-0.0855,-0.0833,-0.0784,-0.0785,-0.0778,-0.0777,-0.076,-0.0746,-0.074,-0.0802,-0.0802,-0.0801,-0.0801,0,0,-0.1371,-0.1288,-0.1279,-0.1249,-0.1185,-0.1149,-0.1104,-0.1048,-0.1023,-0.0975,-0.0936,-0.0867,-0.086,-0.0825,-0.0798,-0.0771,-0.0744,-0.0766,-0.0764,-0.0764,-0.0687,-0.0694,-0.0688,-0.0732,-0.0731,-0.073,-0.0692,0,-0.1337,-0.1258,-0.1224,-0.1159,-0.1116,-0.1088,-0.1049,-0.1005,-0.0973,-0.0932,-0.0896,-0.0848,-0.0842,-0.0821,-0.0793,-0.0754,-0.0728,-0.0756,-0.0694,-0.0693,-0.0709,-0.0681,-0.0687,-0.0654,-0.0687,-0.0686,-0.0685,0,-0.1287,-0.1242,-0.1174,-0.1116,-0.1096,-0.1062,-0.1009,-0.097,-0.0919,-0.0898,-0.086,-0.0835,-0.0786,-0.079,-0.0722,-0.0742,-0.0715,-0.0692,-0.069,-0.0682,-0.0687,-0.0672,-0.0642,-0.0637,-0.0676,-0.0677,-0.0678,0,-0.1285,-0.1207,-0.1156,-0.1132,-0.1063,-0.1039,-0.1009,-0.096,-0.0929,-0.0882,-0.0861,-0.0808,-0.0779,-0.0739,-0.07,-0.0707,-0.0635,-0.0636,-0.0616,-0.0617,-0.0601,-0.0603,-0.0566,-0.0585,-0.0585,-0.0585,-0.0585,0,-0.1251,-0.121,-0.1154,-0.1123,-0.1076,-0.1038,-0.0992,-0.096,-0.0916,-0.0878,-0.0849,-0.0813,-0.0765,-0.0722,-0.0692,-0.064,-0.0627,-0.0608,-0.06,-0.061,-0.0613,-0.0591,-0.0592,-0.0584,-0.0584,-0.0584,-0.0584,0,-0.124,-0.1202,-0.1144,-0.1084,-0.1068,-0.1037,-0.0985,-0.0953,-0.0921,-0.0872,-0.0858,-0.0807,-0.0756,-0.0714,-0.0646,-0.0626,-0.0572,-0.0563,-0.0589,-0.0585,-0.0567,-0.057,-0.0515,-0.0506,-0.0532,-0.0531,-0.0531,0,-0.1221,-0.1189,-0.1127,-0.1099,-0.107,-0.1026,-0.0995,-0.0956,-0.0924,-0.0865,-0.084,-0.0787,-0.0743,-0.0662,-0.0618,-0.0567,-0.0556,-0.0541,-0.0548,-0.0559,-0.0556,-0.0558,-0.0555,-0.054,-0.054,-0.054,-0.054,0,-0.119,-0.1173,-0.113,-0.108,-0.1044,-0.1002,-0.096,-0.0939,-0.0892,-0.0858,-0.0806,-0.0772,-0.0704,-0.0651,-0.0595,-0.0563,-0.0543,-0.0538,-0.0531,-0.054,-0.0557,-0.0548,-0.0587,-0.0539,-0.0539,-0.0539,-0.0539,-0.0539,-0.1174,-0.1145,-0.1097,-0.105,-0.1014,-0.0976,-0.0943,-0.0908,-0.0864,-0.0807,-0.0786,-0.0733,-0.0684,-0.0607,-0.0574,-0.0532,-0.0529,-0.0518,-0.0516,-0.0513,-0.0515,-0.0565,-0.0521,-0.0521,-0.0521,-0.0521,-0.0521,0,-0.1142,-0.111,-0.1068,-0.101,-0.0973,-0.096,-0.0912,-0.0882,-0.0836,-0.0792,-0.075,-0.0691,-0.064,-0.0593,-0.054,-0.0515,-0.0505,-0.0502,-0.0504,-0.0497,-0.052,-0.0532,-0.0512,-0.0512,-0.0512,-0.0512,-0.0512,-0.0512,-0.1121,-0.1071,-0.1049,-0.0981,-0.0948,-0.0897,-0.0872,-0.0836,-0.0801,-0.0736,-0.0695,-0.0665,-0.062,-0.0564,-0.0517,-0.0504,-0.0486,-0.0486,-0.0471,-0.0493,-0.0495,-0.0496,-0.0507,-0.0482,-0.0482,-0.0451,-0.0451,-0.045]},{"header":{"parameterUnit":"m.s-1","parameterCategory":1,"la1":30.2991,"la2":30.254,"lo1":-89.0895,"lo2":-89.0444,"dy":0.0017,"dx":0.0017,"nx":28,"ny":28,"refTime":"2024-06-22T09:00:00:Z","depth":0,"parameterNumber":3,"parameterNumberName":"V-component_of_WINDS"},"data":[0,0,0,0,0,0,0,0,0,0,0,0,0,0,0,0,0,0,0,0,0,0,0,0,0,0,0,0,0,0,0,0,0,0,0,0,0,0,0,0,0,0,0,0,0,0,0,0,0,0,0,0,0,0,0,0,0,0,2.9245,2.9245,0,2.9277,2.9277,2.9278,2.9314,2.9314,2.9315,2.9315,2.9345,2.9346,2.9346,0,0,0,0,0,0,0,0,0,0,0,0,0,2.9212,2.9212,2.9245,2.9245,2.9246,2.9277,2.9277,2.9278,2.9314,2.9314,2.9315,2.9316,2.9345,2.9346,2.9346,0,0,0,0,0,0,0,0,0,0,0,0,0,2.9233,2.9212,2.9245,2.9268,2.927,2.9277,2.9277,2.9278,2.9314,2.9314,2.9315,2.9316,2.9345,2.9346,2.9346,2.9333,0,0,2.9347,2.9348,0,0,0,0,0,0,0,0,2.9232,2.9234,2.9264,2.9266,2.9269,2.9292,2.9277,2.9296,2.9313,2.9297,2.9315,2.9316,2.9327,2.9329,2.9333,2.9334,2.9335,2.9347,2.9348,2.9348,2.9348,0,0,0,0,0,0,0,2.923,2.9233,2.9258,2.9264,2.9267,2.9275,2.9279,2.9281,2.9307,2.9298,2.9301,2.9305,2.9328,2.9332,2.9334,2.9336,2.9347,2.9348,2.9348,2.9348,2.9326,2.9325,0,0,0,0,0,0,2.9226,2.9231,2.9257,2.9259,2.9252,2.9275,2.9279,2.9284,2.9307,2.9311,2.9304,2.9306,2.9331,2.9333,2.9335,2.932,2.9348,2.9348,2.9348,2.9326,2.9325,2.9324,0,0,0,0,0,0,2.9225,2.9228,2.9255,2.9246,2.925,2.9275,2.9279,2.9284,2.9288,2.9311,2.9316,2.9303,2.9332,2.9334,2.9333,2.9321,2.9348,2.9349,2.9327,2.9326,2.9325,2.929,0,0,0,0,0,0,2.9224,2.9227,2.9223,2.9246,2.925,2.9253,2.9279,2.9284,2.9289,2.9293,2.9312,2.9316,2.9333,2.9332,2.9333,2.9323,2.9349,2.9329,2.9327,2.9325,2.9292,2.9287,2.9284,0,0,0,0,0,2.9222,2.9212,2.9223,2.9226,2.9246,2.9253,2.9255,2.9276,2.9288,2.9284,2.9298,2.9315,2.9323,2.9331,2.9333,2.9322,2.9329,2.9327,2.9325,2.9294,2.9288,2.9284,0,0,0,0,0,0,2.9187,2.9215,2.9228,2.9224,2.9236,2.9259,2.9254,2.9269,2.9277,2.928,2.9304,2.9308,2.9303,2.9313,2.9322,2.931,2.9328,2.9327,2.9304,2.9299,2.9294,2.9292,2.935,0,0,0,0,0,2.9178,2.9182,2.9207,2.9201,2.9206,2.9229,2.9233,2.9247,2.926,2.9265,2.9279,2.929,2.9295,2.9298,2.9303,2.9294,2.9298,2.9287,2.9283,2.9279,2.9277,2.9272,2.9267,2.9318,2.9318,2.9318,0,0,2.9161,2.9177,2.9178,2.9194,2.9205,2.9207,2.9233,2.9235,2.9236,2.9265,2.9264,2.9275,2.9289,2.9283,2.9281,2.9291,2.9264,2.9277,2.9274,2.9274,2.9269,2.9264,2.926,2.9317,2.9317,2.9317,0,0,2.9131,2.9144,2.914,2.9151,2.9167,2.9182,2.9181,2.9201,2.921,2.921,2.9231,2.9233,2.9241,2.9249,2.9254,2.9226,2.9242,2.9227,2.9205,2.9199,2.9195,2.9191,2.918,2.9176,2.9225,2.9225,2.9225,0,2.9107,2.9113,2.9136,2.9136,2.9142,2.9169,2.9164,2.9173,2.919,2.9192,2.9204,2.9213,2.9225,2.922,2.9213,2.9217,2.9216,2.9225,2.9194,2.919,2.9188,2.9177,2.9173,2.9223,2.9224,2.9224,2.9224,0,2.9082,2.9085,2.908,2.9096,2.9102,2.9099,2.9121,2.9123,2.9137,2.9151,2.9149,2.9164,2.9172,2.9172,2.9186,2.917,2.9175,2.919,2.9208,2.918,2.9171,2.9167,2.9221,2.9221,2.9222,2.9222,0,0,2.903,2.9059,2.9056,2.9064,2.9083,2.9086,2.9084,2.9093,2.9094,2.9104,2.9102,2.9108,2.9121,2.9127,2.9142,2.9137,2.9112,2.9152,2.9153,2.9143,2.9093,2.9082,2.9077,2.9123,2.9122,2.9122,2.9092,0,2.9003,2.9002,2.9023,2.9016,2.9019,2.9044,2.9042,2.9053,2.9065,2.9068,2.9082,2.9085,2.9103,2.9107,2.9103,2.9116,2.9102,2.9119,2.912,2.912,2.9115,2.9072,2.906,2.9031,2.9088,2.9088,2.9087,0,2.897,2.8979,2.8973,2.8992,2.8994,2.8992,2.9001,2.9004,2.9017,2.9026,2.9032,2.9049,2.9047,2.9066,2.9063,2.9074,2.9075,2.9082,2.9081,2.9081,2.9101,2.9069,2.9022,2.9017,2.9082,2.9082,2.9083,0,2.8931,2.8942,2.8939,2.8945,2.8967,2.8965,2.8974,2.8987,2.8991,2.8999,2.9001,2.9008,2.9012,2.9016,2.9034,2.9046,2.9029,2.9049,2.9035,2.9034,2.9029,2.9029,2.898,2.9032,2.9032,2.9032,2.9033,0,2.8898,2.8893,2.8922,2.892,2.8915,2.8938,2.8931,2.8943,2.8954,2.8954,2.8976,2.8975,2.9,2.9001,2.9015,2.901,2.9011,2.9018,2.9021,2.9015,2.9014,2.9016,2.9018,2.9031,2.9032,2.9032,2.9032,0,2.8853,2.8873,2.8871,2.8893,2.8898,2.8892,2.891,2.8908,2.8922,2.8921,2.8923,2.8943,2.8946,2.8965,2.8972,2.8981,2.897,2.8978,2.8966,2.8968,2.8953,2.8953,2.8902,2.8896,2.8953,2.8952,2.8952,0,2.883,2.8827,2.8847,2.8849,2.8857,2.886,2.8864,2.8886,2.8889,2.8902,2.8899,2.8903,2.8908,2.8911,2.8926,2.8932,2.8939,2.8921,2.894,2.8934,2.8937,2.8937,2.8936,2.8916,2.8916,2.8915,2.8915,0,2.8786,2.8796,2.8801,2.8809,2.8813,2.8821,2.8829,2.8829,2.8854,2.8855,2.8859,2.8863,2.887,2.8874,2.8881,2.8889,2.8905,2.8909,2.8905,2.8898,2.8891,2.8893,2.8953,2.8909,2.891,2.891,2.8911,2.8911,2.8751,2.8749,2.8762,2.8767,2.8776,2.8783,2.8783,2.8796,2.88,2.8807,2.882,2.8821,2.8833,2.8845,2.8851,2.8852,2.8861,2.8857,2.8856,2.8854,2.885,2.8892,2.8853,2.8853,2.8854,2.8854,2.8854,0,2.8707,2.8717,2.8721,2.8733,2.8736,2.8752,2.8762,2.8763,2.8764,2.8774,2.8778,2.8781,2.8785,2.88,2.8805,2.8803,2.881,2.8803,2.8803,2.8804,2.8842,2.8844,2.8797,2.8797,2.8797,2.8797,2.8797,2.8797,2.8685,2.8681,2.8692,2.8693,2.8703,2.8705,2.8709,2.8715,2.8723,2.8726,2.8729,2.8739,2.8751,2.8756,2.876,2.8764,2.8765,2.8755,2.8761,2.8796,2.8802,2.8807,2.8808,2.8755,2.8755,2.8723,2.8723,2.8723]}]]